TimeCDT,TemperatureF,Dew PointF,Humidity,Sea Level PressureIn,VisibilityMPH,Wind Direction,Wind SpeedMPH,Gust SpeedMPH,PrecipitationIn,Events,Conditions,WindDirDegrees,DateUTC
12:53 AM,78.1,70.0,76,29.88,10.0,SSW,4.6,-,N/A,,Clear,200,2013-09-02 05:53:00
1:53 AM,77.0,70.0,79,29.88,10.0,SSW,3.5,-,N/A,,Clear,200,2013-09-02 06:53:00
2:53 AM,77.0,70.0,79,29.88,10.0,SSW,4.6,-,N/A,,Clear,210,2013-09-02 07:53:00
3:53 AM,77.0,71.1,82,29.87,10.0,SSW,5.8,-,N/A,,Clear,210,2013-09-02 08:53:00
4:53 AM,77.0,71.1,82,29.88,10.0,WSW,3.5,-,N/A,,Clear,240,2013-09-02 09:53:00
5:53 AM,75.9,71.1,85,29.91,10.0,SW,4.6,-,N/A,,Clear,220,2013-09-02 10:53:00
6:53 AM,75.9,71.1,85,29.91,10.0,North,-9999.0,-,N/A,,Clear,0,2013-09-02 11:53:00
7:53 AM,78.1,73.0,84,29.93,10.0,West,5.8,-,N/A,,Clear,260,2013-09-02 12:53:00
8:53 AM,82.0,73.0,74,29.93,10.0,WSW,8.1,-,N/A,,Clear,250,2013-09-02 13:53:00
9:53 AM,87.1,72.0,61,29.95,10.0,West,8.1,-,N/A,,Clear,260,2013-09-02 14:53:00
10:53 AM,90.0,70.0,52,29.96,10.0,West,11.5,-,N/A,,Clear,280,2013-09-02 15:53:00
11:53 AM,93.0,70.0,47,29.96,10.0,WNW,10.4,17.3,N/A,,Clear,290,2013-09-02 16:53:00
12:53 PM,91.0,70.0,50,29.94,10.0,WNW,10.4,-,N/A,,Mostly Cloudy,300,2013-09-02 17:53:00
1:53 PM,87.1,73.9,65,29.91,10.0,NNE,5.8,-,0.01,,Mostly Cloudy,20,2013-09-02 18:53:00
2:53 PM,90.0,72.0,55,29.88,10.0,North,8.1,-,N/A,,Partly Cloudy,350,2013-09-02 19:53:00
3:53 PM,93.9,68.0,43,29.86,10.0,WSW,6.9,-,N/A,,Scattered Clouds,250,2013-09-02 20:53:00
4:53 PM,88.0,70.0,55,29.86,10.0,SSW,9.2,-,N/A,,Clear,210,2013-09-02 21:53:00
5:53 PM,87.1,71.1,59,29.87,10.0,SSW,5.8,-,N/A,,Clear,200,2013-09-02 22:53:00
6:53 PM,84.0,71.1,65,29.86,10.0,SSW,4.6,-,N/A,,Clear,200,2013-09-02 23:53:00
7:53 PM,82.9,72.0,69,29.88,10.0,Calm,Calm,-,N/A,,Clear,0,2013-09-03 00:53:00
8:53 PM,82.0,72.0,71,29.89,10.0,Calm,Calm,-,N/A,,Clear,0,2013-09-03 01:53:00
9:53 PM,80.1,72.0,76,29.90,10.0,Calm,Calm,-,N/A,,Clear,0,2013-09-03 02:53:00
10:53 PM,80.1,72.0,76,29.90,10.0,Calm,Calm,-,N/A,,Clear,0,2013-09-03 03:53:00
11:53 PM,80.1,72.0,76,29.91,10.0,Calm,Calm,-,N/A,,Overcast,0,2013-09-03 04:53:00